Location: Auckland
(36.8670°S, 174.7670°E)
Time: 21:15:51
(UTC+12:00)

Tiros 1 despin weight - Pass Details

Date: 25 July 2019
Orbit: 594 x 642 km, 48.2° (Epoch: 24 August)

Event Time Altitude Azimuth Distance (km) Brightness Sun altitude
Rises 01:23:15 0° 250° (WSW) 2,851 - -69.1°
Reaches altitude 10° 01:26:05 10° 232° (SW) 1,952 - -68.7°
Maximum altitude 01:29:21 19° 185° (S) 1,440 - -68.3°
Drops below altitude 10° 01:32:38 10° 138° (SE) 1,964 - -67.8°
Sets 01:35:31 0° 120° (ESE) 2,875 - -67.4°
